Wind_Speed
3 4 5 5 5 4 6 9 11 11 9 6 4 4 5 6 6 6 6 6 5 5 5 5 5 4 4 4 4 4 4 4 4 5 5 6 7 7 8 9 10 11 12 13 13 14 14 14 14
2 1 3 4 3 3 6 10 12 14 12 9 7 5 6 6 7 6 6 6 6 6 5 5 5 5 4 4 4 4 4 5 5 6 6 7 7 8 8 9 10 11 12 12 13 13 14 14 14
4 2 1 2 0 3 5 9 13 16 15 13 11 10 10 9 8 8 8 7 6 5 6 6 6 6 6 6 6 6 6 7 8 8 9 10 10 11 11 11 11 12 12 13 13 13 14 14 14
6 3 2 3 2 2 5 8 12 16 18 17 16 14 13 11 10 10 9 8 6 6 6 7 7 7 8 9 9 9 10 10 11 11 12 13 13 14 14 14 14 14 14 14 14 14 15 15 14
7 5 5 4 2 2 4 8 14 19 21 22 20 18 15 12 11 11 11 9 8 8 8 9 9 10 11 12 12 12 13 13 13 14 14 14 15 16 16 17 17 18 17 17 17 16 16 16 16
8 6 7 5 4 3 4 10 18 23 25 24 23 20 18 15 13 12 12 11 10 10 10 11 12 12 13 13 14 15 14 15 16 16 16 16 17 17 17 18 19 19 20 20 19 19 18 18 17
10 7 9 9 8 6 8 14 21 25 27 27 25 24 23 20 15 13 13 13 12 11 12 12 13 13 14 14 15 16 16 17 17 17 17 18 18 18 19 19 20 20 21 21 21 21 21 21 20
12 9 13 15 13 9 11 15 21 25 27 28 28 28 26 24 20 15 13 14 13 13 14 15 15 15 16 17 18 18 18 18 19 19 19 19 20 20 20 21 21 21 22 23 23 23 23 23 23
15 12 17 20 19 16 15 18 22 26 28 29 30 30 28 26 24 19 17 16 15 16 17 17 17 18 19 20 21 21 21 21 21 21 22 22 22 22 23 23 23 23 23 23 24 24 25 25 25
16 14 22 25 24 22 20 22 25 27 30 31 31 32 29 27 24 23 21 19 18 18 19 19 20 21 22 23 23 23 23 23 24 24 25 25 25 25 26 26 26 25 25 25 24 24 25 25 26
18 17 24 27 26 25 24 25 27 30 33 34 33 30 28 27 25 24 22 21 20 21 22 21 23 24 26 26 26 25 25 26 26 26 27 28 28 28 28 28 28 28 28 27 27 26 25 26 26
20 21 25 27 27 25 25 25 27 30 31 31 31 30 28 27 25 25 25 24 24 24 24 25 26 27 28 28 27 27 27 27 29 30 30 31 32 31 31 31 31 31 31 30 29 28 28 27 27
22 23 26 28 27 26 25 25 25 27 28 28 28 29 29 28 27 28 27 27 27 27 27 28 28 28 28 29 28 28 29 30 31 32 32 33 33 32 32 32 32 32 32 32 31 31 30 30 29
20 21 22 23 23 23 23 23 23 23 23 24 25 26 27 26 26 26 26 27 27 28 28 28 28 28 28 29 30 31 32 32 33 34 34 34 33 32 32 33 32 33 33 33 32 31 31 31 31
19 19 19 20 21 21 21 20 20 20 20 20 21 22 24 24 24 25 25 25 26 27 27 27 27 28 29 30 32 33 34 34 35 35 35 34 34 33 33 33 33 33 33 34 33 33 32 32 33
17 17 17 18 19 19 20 20 19 20 20 19 19 21 22 23 23 23 24 24 24 24 25 25 26 28 29 31 33 34 34 35 36 36 36 35 35 34 34 34 33 34 34 34 34 34 32 32 32
13 14 14 15 17 19 21 22 22 21 20 18 16 18 19 20 21 21 22 22 23 23 24 25 27 28 30 32 33 34 36 36 37 37 36 35 35 34 34 34 34 34 34 34 34 34 33 32 32
8 9 10 12 15 19 21 23 24 22 20 15 13 13 15 16 17 18 19 20 21 23 25 27 29 30 32 33 34 35 36 37 37 36 36 35 35 35 35 35 35 35 35 35 34 34 34 33 32
8 9 9 10 11 13 16 19 20 19 16 13 10 9 10 11 14 16 17 19 21 24 26 28 30 31 33 34 35 35 36 36 37 37 36 36 36 36 36 36 36 36 37 36 36 35 34 33 33
8 10 10 11 13 14 17 18 16 14 10 8 7 7 8 10 12 14 17 19 21 23 25 27 29 31 32 33 34 34 34 34 35 36 36 36 36 37 36 36 37 37 37 38 38 37 36 35 33
6 10 12 14 16 19 21 21 19 10 7 3 3 3 6 9 12 14 16 18 20 21 23 25 27 28 29 30 31 32 33 33 34 34 35 35 36 36 35 35 35 35 35 36 36 36 36 35 34
8 10 13 14 15 18 20 19 13 9 6 5 4 4 6 9 12 14 16 18 19 21 22 24 25 26 28 29 30 31 32 33 34 34 34 34 34 34 34 33 32 32 33 33 34 34 34 34 33
10 10 12 12 13 15 16 17 14 12 9 8 7 8 8 10 12 15 17 19 20 22 23 24 25 26 28 29 29 30 31 32 33 33 33 34 34 34 34 32 31 31 31 31 31 31 32 32 32
10 9 10 10 11 11 12 14 14 12 12 11 10 10 11 13 15 17 19 21 22 23 24 25 27 28 29 30 31 31 32 33 33 34 34 34 35 35 35 34 32 31 31 31 31 31 31 32 32
8 9 9 8 8 9 10 11 13 12 11 11 11 12 14 17 19 21 23 24 26 27 28 29 30 31 32 32 33 33 34 34 34 35 35 35 36 37 37 36 35 34 32 32 32 32 32 32 32
7 8 9 9 10 9 9 10 12 11 11 12 14 16 18 21 23 25 27 29 30 31 32 33 34 35 35 35 35 35 35 35 35 36 36 37 37 38 38 39 38 37 36 34 34 34 34 33 33
8 8 8 8 9 9 9 9 12 12 13 15 18 20 22 24 27 29 31 33 34 35 35 36 36 36 35 35 35 35 35 35 36 37 38 38 39 39 39 40 40 40 39 38 37 36 37 36 36
12 10 8 7 7 9 11 12 15 16 17 18 20 23 25 27 30 32 34 35 36 36 37 37 37 36 36 36 35 35 35 36 37 38 39 39 39 40 40 40 41 41 41 40 40 39 39 39 39
9 8 8 8 10 12 16 18 18 19 19 21 23 25 27 29 31 34 35 35 36 36 36 37 37 37 36 36 36 36 37 38 39 39 40 40 40 40 40 40 40 40 41 41 41 41 41 41 41
8 10 10 11 13 16 19 20 20 20 21 23 25 26 27 29 31 33 34 35 35 35 36 36 36 36 37 37 37 38 39 40 40 41 41 41 40 40 39 39 39 40 41 42 43 43 44 44 44
Wind_Direction
79 100 102 77 60 49 33 23 11 351 335 343 334 320 344 351 348 347 340 331 337 2 6 355 345 336 325 316 312 312 318 328 335 339 343 344 343 340 337 332 331 332 333 336 339 341 344 347 352
13 94 107 74 51 3 12 6 349 341 329 326 321 323 338 337 329 326 324 325 347 1 352 340 334 328 321 311 305 305 311 318 320 322 324 325 324 323 322 320 318 318 319 321 324 326 329 333 338
328 310 99 88 197 354 10 355 336 328 321 318 319 321 327 329 322 321 320 323 339 341 332 325 322 319 316 310 306 303 303 306 308 309 309 309 309 308 307 306 305 305 306 307 308 310 313 317 322
314 283 200 197 232 349 355 340 318 309 309 311 315 318 320 325 323 320 319 316 314 311 309 309 306 304 302 299 297 297 296 297 298 298 299 299 299 299 298 298 296 295 294 294 295 296 298 301 306
304 273 227 219 248 316 318 305 296 297 301 306 312 315 315 319 317 312 308 305 297 293 291 292 290 290 292 292 290 291 294 294 294 294 294 295 296 297 295 294 290 287 285 285 285 284 285 287 290
296 273 224 216 237 254 266 280 284 289 295 302 308 310 309 308 303 301 299 300 297 294 293 291 288 287 289 290 291 292 291 292 294 293 293 293 293 295 295 295 291 285 281 280 279 277 276 276 277
285 264 215 204 212 215 243 262 273 281 290 296 302 306 308 304 296 290 292 297 298 297 295 292 290 290 292 292 293 294 293 293 297 296 294 294 293 294 295 297 294 288 283 279 276 272 270 268 268
276 248 207 202 211 221 243 259 270 278 284 291 298 302 304 300 295 285 284 290 290 290 289 289 292 293 294 294 294 295 296 297 298 298 297 296 296 295 295 296 295 292 287 281 276 271 266 265 262
270 237 206 206 214 227 245 259 269 276 281 287 294 298 299 295 293 287 286 288 284 284 284 284 288 290 292 293 294 296 296 297 299 299 297 296 296 296 295 295 294 292 289 284 279 272 267 262 260
262 228 210 216 223 234 245 257 268 275 279 285 290 294 293 291 287 289 286 285 283 280 278 280 284 286 287 288 290 292 292 294 296 295 295 294 294 296 294 293 291 291 289 287 282 277 272 266 261
252 224 216 220 227 237 245 254 264 269 275 280 285 287 287 289 287 289 291 287 282 279 276 277 279 281 283 285 286 287 289 291 292 293 295 294 294 294 292 291 290 289 287 287 284 280 277 271 266
241 223 219 223 231 241 249 256 262 268 273 279 281 284 285 286 285 289 291 288 285 283 283 282 281 280 279 280 281 282 285 287 289 291 292 293 293 293 291 289 286 284 283 282 282 282 279 276 269
236 226 221 224 232 241 250 257 263 269 273 278 281 282 282 283 285 286 287 287 287 287 288 286 286 284 282 281 283 285 287 289 288 288 288 289 289 289 287 287 284 281 280 278 278 278 277 276 273
234 231 227 230 235 243 253 260 266 270 273 276 278 281 282 283 285 285 285 287 287 287 287 287 287 286 286 287 288 289 290 290 290 291 290 290 289 288 287 285 283 280 279 277 276 276 275 277 275
224 224 225 231 238 246 254 259 264 269 270 273 276 281 284 286 285 285 286 286 287 287 287 287 287 287 287 288 288 289 290 291 292 291 291 290 289 289 288 286 283 280 278 277 277 276 275 276 275
213 215 218 230 239 248 257 259 263 266 267 271 275 280 283 283 283 284 284 284 285 285 286 285 285 285 286 287 288 289 290 291 291 291 291 290 289 288 286 284 282 279 277 277 278 277 276 277 274
206 215 223 238 249 256 262 260 260 262 264 265 271 276 280 280 281 283 285 286 286 286 286 286 286 286 287 288 288 288 289 289 290 290 290 289 288 287 286 283 280 278 276 275 276 277 276 276 273
219 231 239 259 259 261 267 267 266 261 261 256 261 270 278 283 285 286 288 289 290 290 290 289 289 289 289 290 290 290 290 290 290 290 289 288 287 286 284 282 280 278 276 275 275 275 276 275 273
249 259 277 285 280 277 286 282 275 274 268 258 252 259 274 283 286 288 289 290 292 292 292 291 291 291 291 291 291 291 291 291 291 291 289 288 287 286 284 283 281 279 276 275 275 274 274 275 273
281 299 303 319 321 319 316 311 303 294 284 271 249 253 276 285 289 291 293 294 293 293 293 292 292 292 292 293 293 292 292 291 290 289 289 288 286 284 283 281 280 278 276 274 273 273 272 272 272
308 325 333 337 337 340 340 332 324 324 300 295 282 270 293 300 303 305 304 302 300 299 298 298 297 296 296 296 296 295 294 293 292 291 290 289 287 285 284 282 279 277 274 272 271 270 268 268 267
341 341 345 351 355 354 355 357 0 8 14 32 21 353 328 323 322 319 317 314 312 310 307 305 303 302 301 300 299 298 297 297 296 296 295 294 292 290 289 286 282 278 275 272 269 267 265 265 264
354 352 352 351 354 2 11 20 29 28 30 30 21 3 350 342 337 330 326 322 320 316 313 310 308 307 305 304 303 302 301 300 299 298 297 296 295 294 292 290 286 281 276 272 269 266 264 262 261
349 347 343 346 356 10 21 32 36 37 30 25 16 0 355 350 345 339 334 329 326 322 319 316 314 312 309 307 306 305 305 304 303 302 300 299 297 295 293 291 287 282 277 273 269 265 262 260 258
329 328 327 334 344 1 18 34 27 23 19 14 4 356 354 352 347 342 338 334 330 327 325 322 320 318 315 312 310 308 307 306 305 303 301 299 297 295 293 291 288 284 278 272 268 265 261 259 257
324 318 318 322 329 344 356 0 2 7 10 5 359 355 353 350 346 342 339 336 333 330 327 325 323 320 316 313 311 310 308 307 305 304 302 300 297 295 292 290 287 284 280 274 269 265 262 258 256
347 338 334 328 328 327 332 338 344 360 5 360 357 354 351 347 344 342 339 337 334 331 328 325 322 320 318 316 313 312 310 309 307 305 302 299 297 294 291 288 285 282 279 276 271 267 264 260 257
338 345 350 344 332 322 325 332 346 4 3 357 354 352 349 347 344 341 338 335 332 330 327 325 324 323 321 319 318 315 314 312 310 307 304 300 297 293 290 287 284 281 278 275 272 269 265 263 259
330 339 349 351 337 328 328 336 349 359 359 354 352 350 347 345 341 338 335 332 331 329 329 329 328 327 326 324 322 320 318 315 312 309 306 302 298 294 291 288 285 282 279 276 272 270 267 264 261
346 344 344 344 337 332 331 338 348 356 354 351 348 345 342 339 337 335 333 332 331 331 331 331 331 330 329 328 326 324 322 319 316 312 309 305 301 297 294 290 287 283 280 277 274 272 269 265 262
Height
5935 5933 5933 5933 5933 5932 5930 5930 5928 5928 5928 5929 5929 5928 5928 5928 5927 5929 5925 5923 5922 5920 5920 5920 5919 5919 5918 5917 5917 5916 5915 5915 5914 5913 5912 5912 5911 5911 5910 5909 5909 5908 5907 5906 5905 5904 5903 5903 5902
5934 5933 5933 5933 5932 5931 5930 5929 5928 5927 5927 5928 5928 5928 5928 5926 5925 5925 5923 5922 5920 5920 5920 5920 5919 5918 5918 5917 5916 5916 5915 5914 5913 5912 5912 5911 5910 5909 5909 5908 5907 5906 5906 5905 5904 5903 5902 5902 5901
5934 5932 5932 5932 5931 5930 5929 5928 5927 5926 5925 5926 5926 5927 5927 5926 5924 5922 5922 5920 5919 5919 5919 5919 5919 5918 5917 5917 5916 5915 5914 5913 5912 5911 5910 5909 5908 5908 5907 5906 5905 5904 5904 5903 5902 5901 5901 5900 5900
5933 5932 5932 5932 5930 5928 5927 5926 5926 5924 5924 5925 5925 5925 5925 5925 5922 5920 5920 5919 5919 5919 5918 5918 5917 5917 5916 5915 5914 5913 5912 5911 5910 5909 5908 5907 5906 5905 5904 5903 5903 5902 5901 5900 5900 5899 5898 5898 5898
5932 5931 5931 5930 5928 5927 5924 5923 5923 5923 5923 5923 5924 5923 5924 5924 5921 5919 5918 5918 5917 5917 5917 5916 5915 5915 5914 5912 5911 5910 5909 5908 5907 5906 5905 5904 5903 5902 5901 5900 5899 5898 5898 5897 5896 5896 5895 5895 5895
5931 5930 5930 5929 5926 5924 5922 5921 5921 5920 5920 5921 5921 5922 5921 5922 5921 5919 5916 5916 5915 5915 5914 5913 5913 5912 5911 5909 5908 5907 5906 5905 5904 5903 5902 5901 5899 5898 5897 5896 5895 5894 5893 5893 5892 5892 5892 5891 5891
5930 5929 5928 5927 5924 5922 5921 5920 5919 5917 5917 5918 5918 5918 5917 5917 5919 5918 5914 5913 5913 5913 5912 5911 5910 5909 5907 5906 5905 5904 5903 5901 5900 5899 5898 5896 5895 5894 5893 5892 5891 5889 5889 5888 5887 5887 5887 5887 5886
5926 5927 5925 5923 5920 5919 5918 5917 5916 5915 5915 5914 5914 5914 5913 5911 5913 5914 5913 5911 5911 5910 5909 5908 5907 5905 5904 5902 5901 5900 5899 5897 5896 5895 5893 5892 5891 5890 5888 5887 5886 5884 5883 5882 5882 5881 5881 5881 5881
5922 5924 5921 5919 5917 5915 5914 5913 5913 5912 5911 5911 5911 5911 5910 5907 5907 5908 5908 5908 5908 5907 5905 5903 5903 5901 5899 5898 5896 5895 5894 5893 5892 5890 5889 5887 5886 5885 5883 5882 5880 5879 5877 5876 5875 5875 5875 5875 5875
5917 5918 5917 5915 5913 5911 5910 5909 5909 5908 5908 5908 5907 5907 5905 5903 5902 5902 5903 5903 5903 5902 5899 5898 5898 5896 5895 5893 5892 5891 5889 5888 5887 5885 5884 5882 5880 5879 5877 5876 5874 5873 5871 5870 5869 5868 5868 5868 5868
5911 5913 5912 5910 5909 5907 5907 5906 5906 5905 5904 5904 5903 5902 5900 5899 5897 5896 5896 5897 5897 5896 5894 5893 5893 5891 5890 5888 5886 5885 5884 5883 5881 5879 5878 5876 5874 5873 5871 5870 5868 5866 5865 5864 5863 5862 5861 5861 5860
5905 5906 5906 5906 5904 5903 5903 5903 5903 5902 5901 5900 5899 5898 5896 5894 5892 5890 5890 5890 5890 5889 5889 5888 5887 5886 5884 5882 5880 5878 5877 5877 5876 5874 5872 5870 5868 5866 5865 5863 5861 5860 5858 5857 5856 5855 5854 5853 5853
5898 5899 5899 5899 5899 5899 5899 5899 5899 5898 5897 5896 5894 5893 5891 5890 5889 5887 5886 5886 5885 5883 5883 5882 5881 5879 5877 5875 5873 5871 5871 5870 5869 5867 5866 5864 5862 5860 5858 5856 5854 5852 5850 5850 5849 5848 5847 5846 5845
5892 5892 5893 5893 5894 5894 5895 5895 5895 5894 5893 5892 5890 5888 5886 5886 5884 5883 5882 5881 5880 5879 5877 5876 5874 5872 5870 5868 5866 5865 5864 5863 5861 5860 5858 5856 5854 5852 5850 5848 5846 5844 5842 5841 5841 5841 5839 5838 5837
5887 5888 5889 5889 5890 5890 5891 5891 5890 5889 5888 5887 5886 5885 5883 5882 5881 5879 5878 5877 5875 5874 5873 5871 5869 5866 5864 5862 5860 5858 5856 5855 5853 5851 5849 5847 5846 5844 5842 5840 5838 5836 5834 5833 5832 5832 5832 5831 5830
5883 5884 5885 5886 5886 5886 5888 5886 5885 5883 5882 5882 5882 5881 5880 5878 5877 5875 5874 5872 5871 5869 5868 5866 5863 5861 5858 5856 5854 5852 5849 5847 5845 5843 5841 5839 5837 5835 5834 5832 5830 5828 5826 5825 5824 5823 5823 5822 5821
5881 5882 5882 5883 5882 5882 5882 5881 5880 5878 5877 5876 5876 5876 5875 5874 5873 5871 5869 5868 5866 5864 5862 5860 5857 5855 5852 5850 5847 5845 5842 5840 5837 5835 5833 5831 5829 5827 5825 5823 5822 5820 5819 5817 5816 5815 5815 5814 5813
5880 5880 5880 5879 5878 5878 5877 5876 5874 5873 5871 5870 5871 5871 5871 5870 5869 5867 5865 5863 5861 5859 5857 5854 5851 5849 5846 5843 5840 5837 5835 5832 5829 5827 5825 5823 5821 5818 5817 5815 5813 5811 5810 5809 5808 5807 5806 5806 5805
5878 5877 5877 5876 5875 5875 5873 5871 5868 5866 5865 5865 5866 5867 5867 5866 5865 5863 5861 5859 5857 5854 5851 5849 5846 5842 5839 5836 5833 5830 5827 5824 5821 5818 5816 5814 5812 5809 5807 5805 5804 5802 5801 5800 5799 5799 5798 5798 5797
5875 5875 5874 5873 5872 5871 5869 5866 5862 5859 5859 5860 5862 5863 5864 5862 5861 5860 5858 5856 5852 5849 5846 5843 5840 5836 5832 5829 5825 5822 5819 5816 5813 5810 5807 5804 5802 5800 5798 5796 5794 5793 5792 5791 5790 5789 5789 5789 5788
5873 5873 5872 5871 5869 5868 5866 5862 5859 5857 5856 5856 5858 5859 5860 5859 5858 5856 5854 5851 5848 5845 5841 5838 5834 5830 5826 5822 5818 5814 5811 5807 5804 5801 5798 5795 5792 5789 5787 5786 5784 5783 5781 5781 5780 5780 5780 5780 5780
5872 5871 5870 5869 5868 5866 5865 5861 5858 5856 5856 5855 5857 5857 5857 5856 5854 5852 5849 5846 5843 5839 5836 5832 5828 5823 5819 5815 5811 5807 5803 5799 5795 5792 5788 5785 5782 5779 5777 5775 5774 5772 5771 5770 5770 5770 5770 5770 5771
5870 5869 5869 5869 5868 5867 5865 5862 5861 5859 5858 5857 5856 5856 5854 5853 5850 5848 5845 5841 5838 5834 5830 5826 5822 5817 5813 5808 5804 5799 5795 5791 5787 5783 5780 5776 5772 5769 5767 5765 5764 5762 5761 5760 5760 5760 5760 5761 5761
5869 5869 5869 5868 5868 5868 5866 5864 5862 5860 5858 5857 5856 5854 5852 5849 5846 5843 5840 5836 5832 5829 5824 5820 5816 5811 5806 5801 5796 5792 5787 5783 5779 5775 5771 5767 5763 5760 5757 5756 5754 5752 5751 5750 5750 5750 5751 5751 5752
5870 5869 5869 5868 5867 5866 5865 5864 5863 5861 5859 5857 5854 5852 5849 5845 5842 5839 5835 5831 5827 5823 5818 5813 5808 5803 5798 5793 5788 5784 5779 5775 5770 5766 5762 5758 5754 5750 5747 5745 5743 5742 5741 5741 5740 5740 5741 5742 5743
5869 5869 5868 5867 5865 5864 5863 5861 5861 5859 5857 5855 5851 5848 5845 5841 5838 5834 5830 5826 5821 5816 5811 5806 5801 5796 5791 5785 5780 5776 5771 5766 5762 5757 5753 5749 5745 5741 5738 5735 5733 5731 5730 5730 5730 5730 5730 5731 5733
5869 5867 5866 5864 5862 5861 5860 5859 5858 5856 5854 5850 5847 5843 5840 5837 5833 5829 5824 5820 5815 5810 5805 5799 5794 5789 5783 5778 5773 5768 5763 5758 5753 5748 5744 5739 5735 5731 5727 5724 5721 5719 5718 5718 5718 5718 5719 5720 5722
5868 5866 5864 5862 5860 5859 5857 5856 5855 5853 5850 5846 5843 5839 5836 5832 5828 5823 5819 5814 5810 5804 5799 5793 5788 5782 5776 5770 5765 5760 5754 5749 5744 5739 5734 5729 5724 5720 5716 5712 5709 5707 5705 5705 5705 5705 5706 5707 5709
5866 5865 5862 5860 5858 5857 5854 5855 5851 5849 5846 5842 5839 5835 5831 5828 5824 5820 5816 5811 5806 5800 5794 5788 5781 5775 5769 5763 5757 5752 5746 5740 5734 5728 5723 5717 5712 5708 5704 5700 5697 5694 5692 5691 5691 5691 5692 5693 5695
5863 5862 5860 5859 5857 5854 5852 5853 5848 5845 5842 5839 5836 5833 5830 5826 5822 5818 5813 5808 5802 5795 5789 5783 5776 5769 5763 5757 5750 5744 5737 5731 5724 5718 5711 5706 5700 5696 5691 5688 5685 5682 5679 5678 5677 5676 5677 5678 5680